Back to catalog

STARLINK-4787

AliveCommunicationsVLEO
NORAD 53904·PAYLOAD·🇺🇸 United States

Launched Sep 24, 2022 from Cape Canaveral Space Force Station

Loading…

Next Passes (next 24 hours)

TLE

FreshSource: CelesTrak SupGP

Epoch: Sep 14, 2026, 21:22 UTC

1 53904C 22119U   26257.89076389 -.00017773  00000+0 -52550-3 0  2571
2 53904  53.1592 182.0211 0001202  91.1064 146.4039 15.34375466    11

Track STARLINK-4787 in real time with AllMySat

Download on the App Store